Location: Kumla
(59.1265°N, 15.1401°E)
Time: 18:27:40
(UTC+01:00)

Vanguard 1 Rocket - Pass Details

Date: 10 December 2023
Orbit: 654 x 4218 km, 34.3° (Epoch: 21 February)

Event Time Altitude Azimuth Distance (km) Brightness Sun altitude
Rises 07:05:33 0° 254° (WSW) 7,934 11.7 -10.6°
Reaches altitude 10° 07:13:09 10° 244° (WSW) 6,370 11.4 -9.8°
Maximum altitude 07:25:26 22° 202° (SSW) 4,200 10.9 -8.4°
Drops below altitude 10° 07:33:44 10° 157° (SSE) 4,137 11.7 -7.5°
Sets 07:37:17 0° 142° (SE) 4,661 12.7 -7.1°
